Oxford, NC

12:17 AM EST on December 16, 2019 (GMT -0500)
Henderson-Oxford

Weather History for KHNZ - November, 2019

Change the Weather History Date:

Sunday, November 17, 2019

  Actual Average (KTDF) Record (KTDF)
Temperature  
Mean Temperature 41 °F -  
Max Temperature 47 °F 59 °F 77 °F (1964)
Min Temperature 35 °F 35 °F 3 °F (2000)
Degree Days  
Heating Degree Days 24    
Moisture  
Dew Point 30 °F    
Average Humidity 67    
Maximum Humidity 76    
Minimum Humidity 59    
Precipitation  
Precipitation 0.00 in - - ()
Sea Level Pressure  
Sea Level Pressure 30.06 in    
Wind  
Wind Speed 10 mph (NNE)    
Max Wind Speed 16 mph    
Max Gust Speed 24 mph    
Visibility 10 miles    
Events      
Averages and records for this station are not official NWS values.
T = Trace of Precipitation, MM = Missing Value Source: NWS Daily Summary

Daily Weather History Graph

Daily Weather History Graph

Search for Another Location

Airport or City:

Astronomy

Nov. 17, 2019 Rise Set
Actual Time 6:53 AM EST 5:04 PM EST
Civil Twilight 6:25 AM EST 5:32 PM EST
Nautical Twilight 5:54 AM EST 6:03 PM EST
Astronomical Twilight 5:23 AM EST 6:33 PM EST
Moon 9:41 PM EST (11/17) 11:34 AM EST (11/17)
Length of Visible Light 11h 06m
Length of Day
10h 11m
Waning Gibbous, 73% of the Moon is Illuminated
Nov 17
Waning Gibbous
Nov 19
Last Quarter
Nov 26
New
Dec 4
First Quarter
Dec 12
Full

Hourly Weather History & Observations

Time (EST) Temp. Windchill Dew Point Humidity Pressure Visibility Wind Dir Wind Speed Gust Speed Precip Events Conditions
12:35 AM 37.0 °F 28.9 °F 25.5 °F 63% 30.15 in 10.0 mi NNE 12.7 mph 20.7 mph N/A   Overcast
12:55 AM 36.9 °F 29.1 °F 25.5 °F 64% 30.14 in 10.0 mi North 11.5 mph 20.7 mph N/A   Overcast
1:15 AM 36.7 °F 29.4 °F 25.5 °F 64% 30.14 in 10.0 mi North 10.4 mph 20.7 mph N/A   Overcast
1:35 AM 36.5 °F 29.2 °F 25.5 °F 64% 30.14 in 10.0 mi North 10.4 mph 16.1 mph N/A   Overcast
1:55 AM 36.5 °F 28.7 °F 25.7 °F 65% 30.14 in 10.0 mi North 11.5 mph 20.7 mph N/A   Overcast
2:15 AM 36.5 °F 29.2 °F 25.7 °F 65% 30.14 in 10.0 mi North 10.4 mph 19.6 mph N/A   Overcast
2:35 AM 36.5 °F 27.8 °F 25.7 °F 65% 30.14 in 10.0 mi NNE 13.8 mph 23.0 mph N/A   Overcast
2:55 AM 36.3 °F 26.8 °F 25.7 °F 65% 30.13 in 10.0 mi North 16.1 mph 21.9 mph N/A   Overcast
3:15 AM 36.1 °F 29.3 °F 25.7 °F 66% 30.13 in 10.0 mi NNE 9.2 mph 19.6 mph N/A   Overcast
3:35 AM 36.1 °F 28.7 °F 25.9 °F 66% 30.13 in 10.0 mi North 10.4 mph 17.3 mph N/A   Overcast
3:55 AM 36.0 °F 27.1 °F 26.2 °F 68% 30.13 in 10.0 mi NNE 13.8 mph 19.6 mph N/A   Overcast
4:15 AM 36.0 °F 28.5 °F 26.2 °F 68% 30.12 in 10.0 mi NNE 10.4 mph 24.2 mph N/A   Overcast
4:35 AM 36.0 °F 27.5 °F 26.4 °F 68% 30.12 in 10.0 mi NNE 12.7 mph 19.6 mph N/A   Overcast
4:55 AM 35.8 °F 28.3 °F 26.2 °F 68% 30.12 in 10.0 mi North 10.4 mph 19.6 mph N/A   Overcast
5:15 AM 35.6 °F 28.6 °F 26.1 °F 68% 30.11 in 10.0 mi North 9.2 mph 17.3 mph N/A   Overcast
5:35 AM 35.6 °F 28.6 °F 26.1 °F 68% 30.11 in 10.0 mi North 9.2 mph 19.6 mph N/A   Overcast
5:55 AM 35.6 °F 27.5 °F 26.1 °F 68% 30.12 in 10.0 mi North 11.5 mph - N/A   Overcast
6:15 AM 35.4 °F 27.3 °F 25.7 °F 68% 30.12 in 10.0 mi North 11.5 mph 18.4 mph N/A   Overcast
6:55 AM 35.1 °F 27.4 °F 25.2 °F 67% 30.12 in 10.0 mi North 10.4 mph 18.4 mph N/A   Overcast
7:15 AM 35.1 °F 26.4 °F 24.8 °F 66% 30.12 in 10.0 mi North 12.7 mph 19.6 mph N/A   Overcast
7:35 AM 35.1 °F 26.9 °F 24.8 °F 66% 30.13 in 10.0 mi North 11.5 mph 17.3 mph N/A   Overcast
7:55 AM 35.2 °F 28.1 °F 25.0 °F 66% 30.14 in 10.0 mi North 9.2 mph 16.1 mph N/A   Overcast
8:15 AM 35.6 °F 28.6 °F 25.3 °F 66% 30.14 in 10.0 mi North 9.2 mph 17.3 mph N/A   Overcast
8:35 AM 35.6 °F 28.6 °F 25.3 °F 66% 30.13 in 10.0 mi North 9.2 mph 23.0 mph N/A   Overcast
8:55 AM 36.5 °F 28.7 °F 25.9 °F 65% 30.13 in 10.0 mi North 11.5 mph 17.3 mph N/A   Overcast
9:15 AM 37.4 °F 30.8 °F 26.8 °F 66% 30.13 in 10.0 mi North 9.2 mph 21.9 mph N/A   Overcast
9:35 AM 37.9 °F 30.0 °F 27.3 °F 66% 30.13 in 10.0 mi NNE 12.7 mph 19.6 mph N/A   Overcast
9:55 AM 38.3 °F 30.9 °F 27.5 °F 65% 30.13 in 10.0 mi North 11.5 mph 19.6 mph N/A   Overcast
10:15 AM 38.7 °F 32.9 °F 28.0 °F 66% 30.13 in 10.0 mi North 8.1 mph 21.9 mph N/A   Overcast
10:35 AM 39.2 °F 31.6 °F 28.4 °F 65% 30.12 in 10.0 mi NNE 12.7 mph 18.4 mph N/A   Overcast
10:55 AM 39.9 °F 34.5 °F 28.9 °F 65% 30.11 in 10.0 mi North 8.1 mph 18.4 mph N/A   Overcast
11:15 AM 41.2 °F 36.0 °F 29.7 °F 64% 30.10 in 10.0 mi North 8.1 mph 16.1 mph N/A   Mostly Cloudy
11:35 AM 42.3 °F 36.8 °F 30.0 °F 62% 30.08 in 10.0 mi North 9.2 mph 18.4 mph N/A   Mostly Cloudy
11:55 AM 42.8 °F 37.0 °F 30.4 °F 62% 30.07 in 10.0 mi North 10.4 mph 17.3 mph N/A   Mostly Cloudy
12:15 PM 43.2 °F 37.4 °F 30.9 °F 62% 30.06 in 10.0 mi North 10.4 mph 17.3 mph N/A   Mostly Cloudy
12:35 PM 44.2 °F 39.2 °F 31.5 °F 61% 30.05 in 10.0 mi North 9.2 mph 18.4 mph N/A   Mostly Cloudy
12:55 PM 45.0 °F 39.7 °F 32.0 °F 60% 30.04 in 10.0 mi NNE 10.4 mph 16.1 mph N/A   Mostly Cloudy
1:15 PM 44.8 °F 39.0 °F 32.0 °F 61% 30.04 in 10.0 mi North 11.5 mph 17.3 mph N/A   Mostly Cloudy
1:35 PM 45.0 °F 40.1 °F 32.0 °F 60% 30.04 in 10.0 mi North 9.2 mph - N/A   Mostly Cloudy
1:55 PM 45.9 °F 41.7 °F 32.5 °F 60% 30.02 in 10.0 mi North 8.1 mph 17.3 mph N/A   Mostly Cloudy
2:15 PM 45.9 °F 40.0 °F 33.3 °F 61% 30.02 in 10.0 mi NE 12.7 mph 19.6 mph N/A   Mostly Cloudy
2:35 PM 46.6 °F - 33.8 °F 61% 30.01 in 10.0 mi NE 6.9 mph 16.1 mph N/A   Overcast
2:55 PM 46.9 °F - 34.2 °F 61% 30.00 in 10.0 mi NNE 8.1 mph - N/A   Scattered Clouds
3:15 PM 47.3 °F - 33.8 °F 59% 30.00 in 10.0 mi NNE 5.8 mph - N/A   Scattered Clouds
3:35 PM 46.4 °F 43.5 °F 33.8 °F 62% 30.01 in 10.0 mi NNE 5.8 mph 18.4 mph N/A   Scattered Clouds
3:55 PM 46.6 °F - 34.5 °F 63% 30.00 in 10.0 mi NE 9.2 mph 16.1 mph N/A   Overcast
4:15 PM 45.5 °F 40.3 °F 34.2 °F 65% 30.00 in 10.0 mi NNE 10.4 mph - N/A   Overcast
4:35 PM 45.0 °F 41.2 °F 34.2 °F 66% 29.99 in 10.0 mi North 6.9 mph - N/A   Mostly Cloudy
5:15 PM 43.9 °F - 33.3 °F 66% 29.99 in 10.0 mi Calm Calm - N/A   Overcast
5:35 PM 42.8 °F - 33.3 °F 69% 29.99 in 10.0 mi Calm Calm - N/A   Mostly Cloudy
5:55 PM 42.8 °F - 33.1 °F 69% 30.00 in 10.0 mi Calm Calm - N/A   Mostly Cloudy
6:15 PM 43.0 °F 37.7 °F 32.9 °F 68% 30.00 in 10.0 mi North 9.2 mph - N/A   Overcast
6:35 PM 42.8 °F - 33.1 °F 69% 30.00 in 10.0 mi Calm Calm - N/A   Overcast
6:55 PM 42.1 °F 37.1 °F 32.9 °F 70% 29.99 in 10.0 mi NNE 8.1 mph - N/A   Mostly Cloudy
7:15 PM 41.9 °F 38.2 °F 32.9 °F 70% 29.99 in 10.0 mi NNE 5.8 mph - N/A   Mostly Cloudy
7:35 PM 41.9 °F 36.9 °F 32.9 °F 70% 29.98 in 10.0 mi NNE 8.1 mph - N/A   Overcast
7:55 PM 41.9 °F 36.9 °F 33.1 °F 71% 29.98 in 10.0 mi North 8.1 mph - N/A   Overcast
8:15 PM 41.5 °F 36.4 °F 33.1 °F 72% 29.98 in 10.0 mi NNE 8.1 mph 16.1 mph N/A   Overcast
8:35 PM 41.4 °F 36.2 °F 32.9 °F 72% 29.98 in 10.0 mi North 8.1 mph - N/A   Overcast
8:55 PM 41.0 °F 35.8 °F 33.3 °F 74% 29.97 in 10.0 mi NNE 8.1 mph - N/A   Overcast
9:15 PM 40.6 °F 36.0 °F 33.1 °F 74% 29.97 in 10.0 mi North 6.9 mph - N/A   Overcast
9:35 PM 40.5 °F 34.6 °F 33.1 °F 75% 29.97 in 10.0 mi North 9.2 mph - N/A   Overcast
9:55 PM 40.1 °F 34.1 °F 32.9 °F 75% 29.97 in 10.0 mi North 9.2 mph - N/A   Overcast
10:15 PM 40.1 °F 34.7 °F 32.7 °F 75% 29.97 in 10.0 mi North 8.1 mph - N/A   Overcast
10:35 PM 39.9 °F 34.5 °F 32.5 °F 75% 29.97 in 10.0 mi North 8.1 mph - N/A   Overcast
10:55 PM 39.6 °F 34.0 °F 32.0 °F 74% 29.96 in 10.0 mi North 8.1 mph - N/A   Overcast
11:15 PM 39.4 °F - 32.0 °F 75% 29.95 in 10.0 mi Calm Calm - N/A   Overcast
11:35 PM 39.2 °F - 32.0 °F 75% 29.94 in 10.0 mi Calm Calm - N/A   Overcast
11:55 PM 39.0 °F 35.7 °F 32.2 °F 76% 29.94 in 10.0 mi North 4.6 mph - N/A   Overcast